STARLINK-5848 (55932 NORAD) Tracking and Keplerian Element Data

This shows tracking and keplerian element data for the satellite.

Feedback or suggestion? Click here.




ElementValue
Catalog55932
NameSTARLINK-5848
Epoch Orbit840
Epoch Day126.92892623
Epoch Year2023
RAAN40.0222
Inclination70.0014
Eccentricity0.0004624
Argument of Perigee259.7321
Mean Anonmoly100.3354
Mean Motion15.69934599
Decay Rate2.19E-06
L11 55932U 23037U 23126.92892623 .00000219 00000+0 35961-5 0 9994
L22 55932 70.0014 40.0222 0004624 259.7321 100.3354 15.69934599 8401



Live tracking and technical data element details for STARLINK-5848 (NORAD 55932). STARLINK-5848 can be tracked NOW for your location showing map with azimuth and elevation plus other details from your city location.







IsCatalogInMostPopularTable: catalog: 55932, numindb: 8
Update: records affected: 1



GetName: 55932 STARLINK-5848

Hit Count: updated at: Tue, 06 Jun 2023 03:39:17 GMT